Location: Hickory_Viewmont
(35.7830°N, 81.3170°W)
Time: 01:25:07
(UTC-04:00)

Daily predictions for brighter satellites

Satellite Brightness Start Highest point End
(mag) Time Altitude Azimuth Time Altitude Azimuth Time Altitude Azimuth
Cosmos 1867 4.4 00:08:44 41° NE 00:08:44 41° NE 00:12:23 10° NE
Meteor 1-24 Rocket 4.0 00:10:29 66° ENE 00:10:29 66° ENE 00:15:48 10° NNE
H-2A R/B 3.3 00:14:20 31° W 00:14:20 31° W 00:18:27 10° NW
S3M 4.4 00:11:11 10° N 00:16:50 50° ENE 00:16:50 50° ENE
Lacrosse 5 4.1 00:18:22 10° N 00:21:47 18° NNE 00:23:43 15° ENE
USA 234 3.5 00:24:29 53° WSW 00:24:29 53° WSW 00:30:29 10° NW
NOSS 3-2 (A) 4.1 00:22:46 37° WSW 00:24:47 50° NW 00:31:10 10° NNE
Cosmos 1655 Rocket 4.1 00:33:11 65° W 00:33:15 65° W 00:39:28 10° N
Cosmos 2344 3.5 00:35:51 68° SE 00:36:01 69° ESE 00:44:19 10° NE
Timation 2 Rocket 4.1 00:37:11 77° W 00:37:29 79° WNW 00:44:20 10° NNE
Cosmos 2026 Rocket 4.3 00:39:35 54° W 00:39:35 54° W 00:45:31 10° N
Cosmos 2369 4.1 00:35:54 10° NNW 00:40:41 59° NNE 00:40:41 59° NNE
BREEZE-M TANK 4.3 00:20:19 10° SW 00:47:58 77° SSE 00:52:50 10° ENE
CZ-4C R/B 3.6 00:48:42 27° W 00:50:22 32° NW 00:55:36 10° NNE
Cosmos 1980 Rocket 4.0 00:50:29 10° N 00:54:38 21° ENE 00:55:32 20° ENE
Cosmos 1763 Rocket 4.3 00:51:34 10° NNW 00:55:33 48° NNE 00:55:33 48° NNE
Cosmos 2278 4.3 00:57:10 10° NNW 01:01:26 50° NW 01:01:26 50° NW
ALOS 2 4.3 01:09:34 30° NNW 01:09:34 30° NNW 01:11:50 10° NNW
CZ-4B R/B 4.4 01:11:20 17° NNW 01:11:20 17° NNW 01:12:17 10° NNW
Cosmos 1697 Rocket 3.5 01:08:10 10° N 01:13:02 46° NE 01:13:02 46° NE
CENTAUR R/B 2.8 01:16:44 59° ENE 01:16:44 59° ENE 01:22:12 10° NE
Cosmos 2082 Rocket 2.7 01:16:38 54° NNW 01:16:38 54° NNW 01:21:22 10° NNE
Cosmos 1833 Rocket 3.2 01:17:26 56° N 01:17:26 56° N 01:21:51 10° NNE
Cosmos 1656 4.2 01:22:40 10° NNW 01:27:08 56° NNW 01:27:08 56° NNW
Lacrosse 5 rocket 3.8 01:34:14 10° N 01:37:24 19° NE 01:38:03 19° NE
CZ-2C R/B 3.2 01:38:44 10° NNE 01:43:03 56° NNE 01:43:03 56° NNE
Cosmos 1745 Rocket 4.3 02:00:50 56° E 02:00:50 56° E 02:06:50 10° NNE
SL-16 R/B 3.9 01:57:22 10° N 02:02:08 27° ENE 02:03:55 23° E
Cosmos 2315 Rocket 4.3 01:56:54 10° NNW 02:02:23 58° WNW 02:02:23 58° WNW
Meteor 2-11 Rocket 4.5 01:59:08 10° N 02:04:49 76° NNE 02:04:49 76° NNE
Lacrosse 5 3.3 02:00:16 10° NW 02:02:51 31° NW 02:02:51 31° NW
MOS 1-B Rocket 4.3 02:07:31 76° WSW 02:07:44 77° WSW 02:14:27 10° NNW
Cosmos 2322 Rocket 3.4 02:06:30 10° N 02:11:37 34° ENE 02:12:46 31° E
Meteor 1-27 4.4 02:16:01 10° N 02:21:18 73° N 02:21:18 73° N
CZ-2C R/B 3.7 02:31:01 54° NW 02:31:01 54° NW 02:35:41 10° NNW
Cosmos 1980 Rocket 3.1 02:33:27 10° NNW 02:37:16 39° WNW 02:37:16 39° WNW
Cosmos 2360 Rocket 4.4 02:35:11 10° N 02:39:25 21° ENE 02:43:38 10° ESE
Cosmos 1633 Rocket 4.4 02:41:33 35° NNW 02:41:33 35° NNW 02:44:20 10° N
USA 215 3.6 02:35:54 10° NE 02:42:10 47° SE 02:42:14 47° SE
PSLV R/B 4.4 02:43:36 10° N 02:46:56 49° N 02:46:56 49° N
ATLAS 5 CENTAUR R/B 2.0 03:00:28 71° NNE 03:00:28 71° NNE 03:05:05 10° NNE
IRAS Rocket 4.0 02:57:48 10° NNE 03:03:18 85° WNW 03:03:24 85° WSW
Cosmos 1470 Rocket 4.4 03:04:26 46° NNW 03:04:26 46° NNW 03:07:43 10° N
CENTAUR R/B 4.4 03:03:53 15° WNW 03:07:00 21° NW 03:12:04 10° N
Cosmos 1933 Rocket 4.4 03:08:34 45° NNW 03:08:34 45° NNW 03:11:51 10° N
IRS-P3 4.0 03:03:10 10° NNE 03:08:33 89° W 03:08:39 86° SSW
SL-08 R/B 3.7 03:09:01 55° ESE 03:09:33 59° ENE 03:14:24 10° N
Cosmos 1455 3.5 03:12:42 10° N 03:15:01 36° N 03:15:01 36° N
Cosmos 1626 3.5 03:18:21 36° NNW 03:18:21 36° NNW 03:20:43 10° N
Lacrosse 5 rocket 3.6 03:12:37 10° NW 03:13:42 17° NW 03:13:42 17° NW
Cosmos 2181 Rocket 4.0 03:13:06 10° N 03:19:18 78° E 03:21:09 48° SSE
ADEOS 3.8 03:18:32 10° NNE 03:23:43 60° ESE 03:24:35 53° SE
OAO 3 Rocket 4.2 03:26:05 33° ESE 03:26:05 33° ESE 03:28:45 10° ESE
Cosmos 1933 4.2 03:21:23 10° N 03:25:16 44° E 03:25:27 44° E
Cosmos 2112 Rocket 4.1 03:23:33 10° NNW 03:28:45 74° ENE 03:30:11 47° SE
Cosmos 1833 4.2 03:33:18 59° SW 03:34:16 72° WNW 03:40:01 10° NNE
COSMOS 2428 4.4 03:33:58 10° N 03:39:00 32° ENE 03:44:01 10° ESE
GENESIS II 4.3 03:35:15 10° NNW 03:39:18 76° NE 03:39:18 76° NE
Cosmos 2074 Rocket 4.2 03:37:02 36° SSE 03:39:36 67° E 03:45:48 10° NNE
Cosmos 304 Rocket 3.6 03:34:59 10° NNW 03:39:51 83° WSW 03:40:21 70° S
USA 161 4.2 03:43:21 15° NNE 03:43:21 15° NNE 03:43:57 10° N
ATLAS CENTAUR R/B 3.3 03:38:07 10° NNW 03:42:19 33° NE 03:46:11 10° ESE
USA 229 DEB 3.7 03:40:56 45° SSW 03:43:17 83° ESE 03:50:18 10° NNE
USA 229 3.7 03:41:02 45° SSW 03:43:24 83° ESE 03:50:25 10° NNE
H-2A R/B 4.0 02:48:41 10° W 03:45:00 56° SSW 03:50:48 10° ESE
SL-16 R/B 2.8 03:41:06 10° NW 03:45:44 37° W 03:45:44 37° W
GPS 2-05 Rocket1 4.4 03:50:39 27° E 03:50:39 27° E 03:52:18 10° E
Cosmos 2184 Rocket 4.1 03:46:15 35° S 03:49:06 78° E 03:55:27 10° N
Cosmos 2327 Rocket 4.4 03:49:48 38° S 03:52:22 85° E 03:58:36 10° N
OAO 1 4.4 03:50:40 44° W 03:52:30 84° S 03:58:01 10° E
Cosmos 2322 Rocket 3.3 03:50:46 10° NW 03:54:31 27° W 03:54:31 27° W
CZ-2D R/B 2.8 03:53:18 10° NNE 03:58:25 49° E 04:01:23 24° SSE
BREEZE-M DEB (TANK) 4.0 03:52:15 30° SW 03:59:06 75° SE 04:03:34 10° ENE
ATLAS 2A CENTAUR R/B 3.7 03:56:25 32° SSW 03:59:35 45° SSE 04:30:54 10° E
FALCON 9 R/B 2.9 04:02:02 13° E 04:02:02 13° E 04:02:22 10° E
Okean O Rocket 3.8 03:58:41 10° NE 04:01:59 20° E 04:05:15 10° SE
CRYOSAT 2 4.4 03:58:17 10° N 04:03:09 74° E 04:05:17 34° S
SL-16 R/B 2.9 03:58:27 10° SSE 04:04:38 65° ENE 04:10:49 10° N
Cosmos 2298 Rocket 4.2 04:06:07 42° SW 04:07:43 61° WNW 04:13:00 10° N
Cosmos 1869 Rocket 3.8 04:08:33 46° WSW 04:09:09 50° W 04:13:28 10° N
GOES 2 Rocket 4.1 04:09:27 33° S 04:09:27 33° S 04:13:31 10° ESE
ERS-2 4.4 04:07:47 10° NNW 04:09:29 14° WNW 04:09:29 14° WNW
UNKNOWN OBJECT B 3.9 04:06:39 10° NNE 04:10:19 40° E 04:12:14 23° SSE
Spot 4 Rocket 4.3 04:09:01 10° N 04:14:00 52° WNW 04:15:44 36° SW
Cosmos 1680 Rocket 4.2 04:10:10 10° NW 04:14:47 32° W 04:15:02 32° WSW
Meteor 2-3 Rocket 3.8 04:14:48 26° S 04:18:11 86° E 04:24:01 10° N
Cosmos 220 Rocket 4.1 04:20:02 32° S 04:21:53 67° ESE 04:26:09 10° NNE
Cosmos 2221 Rocket 4.2 04:18:41 10° NNW 04:22:51 37° W 04:23:36 35° WSW
Cosmos 2360 Rocket 2.4 04:18:15 10° NNW 04:23:39 49° WSW 04:26:51 23° S
USA 215 3.9 04:18:56 10° NNE 04:25:05 46° NW 04:29:34 19° W
DELTA 2 R/B (1) 3.8 04:23:52 32° SW 04:26:16 55° SSE 04:31:43 10° ENE
In-Cosmos 22 Rocket 4.0 04:23:36 29° SSW 04:26:22 74° W 04:31:48 10° N
Cosmos 2227 Rocket 3.3 04:21:52 13° S 04:26:23 40° ESE 04:31:36 10° NE
EO 1 Del DPAF 3.3 04:29:57 34° SSW 04:31:22 56° W 04:35:14 10° NNW
ARIANE 5 R/B 2.8 04:28:11 10° N 04:33:04 50° WNW 04:35:28 27° SW
Resurs 1-4 Rocket 2.1 04:32:10 10° N 04:37:28 68° WNW 04:40:52 22° SSW
Cosmos 1733 Rocket 3.0 04:35:20 21° S 04:38:13 84° E 04:42:36 10° N
CZ-4B R/B 4.1 04:34:51 10° NNE 04:40:10 48° E 04:45:33 10° S
Cosmos 1898 Rocket 4.3 04:37:55 24° WSW 04:40:11 35° WNW 04:44:56 10° N
Cosmos 1937 Rocket 3.9 04:39:01 26° SW 04:41:47 49° WNW 04:46:56 10° N
IRS-1D 4.0 04:38:17 10° N 04:43:21 46° WNW 04:46:22 22° SW
Cosmos 2219 4.1 04:41:17 21° WSW 04:44:16 34° WNW 04:49:29 10° N
ATLAS 5 CENTAUR R/B 4.2 04:43:07 10° WNW 04:45:28 13° NW 04:47:53 10° N
Cosmos 1125 Rocket 4.3 04:40:30 10° S 04:45:33 49° ESE 04:50:39 10° NNE
Cosmos 2333 4.2 04:39:55 10° NNW 04:45:36 89° ENE 04:51:19 10° SSE
H-2A ROCKET BODY 2.4 04:50:06 23° SSW 04:50:16 23° SSW 04:52:30 10° SSE
PSLV R/B 4.0 04:47:27 10° NNE 04:51:28 73° ESE 04:55:09 12° S
Coronas F rocket 2.0 04:50:09 17° SSE 04:52:03 53° E 04:54:44 10° NNE
Okean 1-7 4.2 04:49:17 10° NNW 04:52:54 26° W 04:54:23 21° WSW
Meteor 1-10 Rocket 4.5 04:48:29 10° N 04:54:16 76° E 05:00:06 10° SSE
Cosmos 2297 Rocket 2.9 04:53:20 10° S 04:58:48 52° ESE 05:04:17 10° NNE
Cosmos 962 Rocket 4.5 04:54:50 10° SSW 05:01:01 72° W 05:07:15 10° N
ASTRO F (AKARI) 4.2 04:58:46 10° S 05:01:59 65° WSW 05:05:08 10° NNW
Cosmos 389 Rocket 3.0 04:59:38 10° NNW 05:03:08 40° W 05:06:02 14° SSW
Cosmos 1782 2.9 05:01:34 10° N 05:05:35 82° E 05:09:33 10° S
NOSS 3-1 (C) 3.4 05:01:32 16° SW 05:06:17 75° WNW 05:12:40 10° NNE
Cosmos 2341 Rocket 4.1 05:00:49 10° SSW 05:07:00 64° W 05:13:20 10° N
OAO 3 Rocket 3.9 05:03:58 14° W 05:07:18 30° SSW 05:11:23 10° SE
IRS-1C Rocket 4.2 05:04:42 10° N 05:09:55 61° WNW 05:15:05 10° SSW
Cosmos 1238 Rocket 4.0 05:03:40 10° N 05:10:13 84° E 05:15:49 10° S
Cosmos 1825 3.5 05:07:04 10° SSE 05:10:37 39° E 05:14:11 10° NNE
CZ-4B DEB 4.3 05:05:18 10° NNE 05:10:50 82° ESE 05:16:22 10° SSW
Cosmos 1980 4.1 05:06:25 10° NNW 05:12:04 67° ENE 05:17:39 10° SSE
Sich 1 Rocket 3.6 05:08:04 10° SSW 05:12:24 65° W 05:16:46 10° N
Cosmos 2082 3.7 05:07:17 11° SSW 05:12:47 82° WNW 05:18:32 10° NNE
Cosmos 2333 Rocket 2.6 05:07:07 10° NNW 05:12:50 71° ENE 05:18:32 10° SSE
Cosmos 1892 3.7 05:11:29 16° SW 05:14:00 31° WNW 05:17:28 10° NNW
Nadezhda 3 Rocket 4.2 05:08:28 10° NNW 05:14:24 51° W 05:20:18 10° SSW
SL-8 Rocket 4.1 05:10:11 10° S 05:16:23 88° E 05:22:41 10° N
Cosmos 1908 Rocket 3.5 05:12:18 10° S 05:16:43 81° W 05:21:07 10° N
MOZ.5/SAFIR/RUBIN 5/SL-8 3.8 05:15:01 10° SSE 05:19:42 88° ENE 05:24:26 10° NNW
Cosmos 1295 Rocket 4.5 05:14:20 10° SSW 05:20:25 72° W 05:26:37 10° N
Cosmos 1862 3.5 05:16:47 10° S 05:20:44 76° E 05:24:43 10° N
ATLAS CENTAUR R/B 2.7 05:17:46 10° WNW 05:21:09 21° WSW 05:24:20 10° SSW
CZ-4B R/B 3.0 05:17:54 10° N 05:22:05 80° WNW 05:26:27 10° SSW
Cosmos 1340 Rocket 3.3 05:18:28 11° SSW 05:22:09 42° WNW 05:25:58 10° N
COSMOS 2428 3.4 05:18:13 10° NW 05:23:10 31° WSW 05:28:06 10° SSW
Cosmos 2366 rocket 4.3 05:17:32 10° S 05:23:41 71° E 05:29:48 10° N
Cosmos 1674 Rocket 3.8 05:20:17 10° NNW 05:24:26 46° W 05:28:34 10° SSW
SME Rocket 4.1 05:18:27 10° S 05:24:49 44° WSW 05:29:17 10° NNW
CZ-2C R/B 4.0 05:21:25 10° S 05:25:42 46° W 05:30:06 10° NNW
GPS 2-05 Rocket1 3.5 05:24:07 10° W 05:27:07 33° SSW 05:30:12 10° SE
PAYLOAD B 4.4 05:23:26 10° N 05:28:51 59° WNW 05:34:16 10° SSW
Meteor 2-13 Rocket 4.4 05:22:54 10° SSW 05:28:56 72° W 05:35:00 10° N
Cosmos 2237 Rocket 2.3 05:27:06 10° NNW 05:32:49 88° WSW 05:38:30 10° SSE
ASTRO E2 3.6 05:31:56 10° SW 05:35:36 34° SSE 05:39:16 10° ESE
CZ-2D R/B 3.7 05:34:32 10° NNW 05:38:05 19° WNW 05:41:39 10° WSW
Okean O Rocket 2.6 05:34:30 10° N 05:38:21 30° WNW 05:42:09 10° SW
PSLV R/B 3.9 05:35:17 10° NNE 05:39:39 69° ESE 05:43:56 10° S
Cosmos 372 Rocket 4.0 05:35:59 10° SSW 05:41:12 87° WNW 05:46:29 10° NNE
Cosmos 1356 Rocket 4.1 05:37:51 10° SW 05:41:37 35° WNW 05:45:20 10° N
Cosmos 2219 Rocket 2.5 05:38:11 10° NW 05:43:28 45° WSW 05:48:44 10° S
Meteor PRIRODA 4.4 05:41:52 10° NNE 05:45:35 56° E 05:49:16 10° S
